FENGYUN 1C DEB, 30316

Orbit data source: Space-Track

FENGYUN 1C DEB, 30316 is space debris in SSO originally from a launch on Mon, 10 May 1999 UTC launched from the Taiyaun Space Center, China (TSC). Fengyun 1C debris stems from the Chinese weather satellite Fengyun-1C, which was intentionally destroyed by a Chinese anti-satellite missile in 2007. This event dramatically increased the amount of space debris, with thousands of trackable fragments posing hazards to satellites and human spaceflight. The Fengyun 1C debris cloud has become a focal point in discussions about space sustainability and the need for international regulations to prevent the creation of new debris.

Loading next visibility...
Identifier
30316, 1999-025AAD
Orbit
SSO
Last TLE update
12 hours ago
Origin
Manufacturer
Unknown
Mission
Spacecraft
Bus & Motor
Unknown
Mass
Unknown
Launch date (UTC)
1999-05-10 (26 years ago)
Launch vehicle
Unknown
Launch site
Taiyaun Space Center, China (TSC)
Object type
Payload
Rocket body
Debris
Shape & HBR
Unknown
Radar Cross Section
Small (<0.1 m²)

Expand to show TLE details & history

TLE from 12 hours ago
0 FENGYUN 1C DEB
1 30316U 99025AAD 25199.50625701  .00007137  00000-0  17528-2 0  9993
2 30316  98.6480 297.1305 0041984 128.2884 232.2098 14.52112096961975
Epoch: 2025-07-18T12:09Z
TLE epoch observation values (Epoch: 2025-07-18T12:09:00.605Z)
Latitude
-0.00007°
Longitude
178.32125°
Altitude
740.058 km
Speed
7.475 km/s
True Right ascension
19h 48m 31s
True Declination
0° 00' 00"
Sunlit
Object was in full shadow at epoch
Visualization orbit readout
Latitude
26.89154°
Longitude
174.4231°
Altitude
726.908 km
Speed
7.492 km/s
Apparent Right ascension
21h 42m 45s
Apparent Declination
-5° 37' 42"
Sunlit
Object is in full shadow
Visualization observer readout
Local Sidereal Time
12:38:44
Azimuth
60.938° ENE
Elevation
-37.736°
Doppler factor
1
Orbital elements
Apogee altitude
745.655 km
Perigee altitude
686.088 km
Semi-major axis
7,094.008 km
Eccentricity
0.0042
Inclination
98.648°
RAAN
297.1305°
Arg. of periapsis
128.2884°
True anomaly
231.83083°
Mean anomaly
232.2098°
Eccentric anomaly
232.02019°
Mean motion
3.6325 °/min
Orbital period
99.11 mins
BSTAR
0.0017528
Loading maneuver chart data...
Loading SW <> Apogee altitude chart data...
Loading historical data...
Loading historical data...
Loading historical data...
Loading historical data...
Loading historical data...
Loading historical data...
Loading historical data...
|